Plattsburgh, NY

12:12 PM EST on December 10, 2019 (GMT -0500)
Plattsburgh International

Weather History for KPBG - October, 2019

Change the Weather History Date:

Thursday, October 31, 2019

  Actual Average Record
Temperature  
Mean Temperature 60 °F 42 °F  
Max Temperature 66 °F 52 °F 68 °F (1950)
Min Temperature 1 °F 33 °F 19 °F (1972)
Degree Days  
Heating Degree Days 6 23  
Month to date heating degree days 464 546  
Since 1 July heating degree days 656 781  
Growing Degree Days 10 (Base 50)    
Moisture  
Dew Point 55 °F    
Average Humidity 95    
Maximum Humidity 100    
Minimum Humidity 87    
Precipitation  
Precipitation 1.34 in - 0.65 in (1955)
Month to date precipitation 5.80  
Year to date precipitation 27.42  
Sea Level Pressure  
Sea Level Pressure 29.65 in    
Wind  
Wind Speed 2 mph ()    
Max Wind Speed 16 mph    
Max Gust Speed 22 mph    
Visibility 6.1 miles    
Events Rain    
T = Trace of Precipitation, MM = Missing Value Source: Averaged Metar Reports

Daily Weather History Graph

Daily Weather History Graph

Search for Another Location

Airport or City:

Astronomy

Oct. 31, 2019 Rise Set
Actual Time 7:29 AM EDT 5:44 PM EDT
Civil Twilight 6:59 AM EDT 6:14 PM EDT
Nautical Twilight 6:25 AM EDT 6:49 PM EDT
Astronomical Twilight 5:51 AM EDT 7:22 PM EDT
Moon 11:22 AM EDT (10/31) 8:31 PM EDT (10/31)
Length of Visible Light 11h 15m
Length of Day
10h 14m
Waxing Crescent, 15% of the Moon is Illuminated
Oct 31
Waxing Crescent
Nov 4
First Quarter
Nov 12
Full
Nov 19
Last Quarter
Nov 26
New

Hourly Weather History & Observations

Time (EDT) Temp. Windchill Dew Point Humidity Pressure Visibility Wind Dir Wind Speed Gust Speed Precip Events Conditions
12:53 AM 52.0 °F - 50.0 °F 93% 30.02 in 10.0 mi Calm Calm - N/A   Partly Cloudy
1:53 AM 52.0 °F - 50.0 °F 93% 29.99 in 10.0 mi Calm Calm - N/A   Partly Cloudy
2:53 AM 52.0 °F - 50.0 °F 93% 29.96 in 9.0 mi Calm Calm - 0.00 in Rain Light Rain
3:53 AM 52.0 °F - 50.0 °F 93% 29.93 in 3.0 mi Calm Calm - 0.07 in Rain Light Rain
3:59 AM 52.0 °F - 51.1 °F 97% 29.92 in 2.5 mi South 3.5 mph - 0.01 in Rain Rain
4:09 AM 52.0 °F - 51.1 °F 97% 29.90 in 2.5 mi Calm Calm - 0.02 in Rain Light Rain
4:25 AM 52.0 °F - 51.1 °F 97% 29.89 in 4.0 mi Calm Calm - 0.05 in Rain Rain
4:43 AM 54.0 °F - 53.1 °F 97% 29.87 in 4.0 mi South 5.8 mph - 0.06 in Rain Light Rain
4:53 AM 54.0 °F - 53.1 °F 97% 29.88 in 6.0 mi South 4.6 mph - 0.07 in Rain Light Rain
5:34 AM 53.1 °F - 52.0 °F 96% 29.89 in 4.0 mi West 3.5 mph - 0.00 in   Overcast
5:53 AM 54.0 °F - 53.1 °F 97% 29.87 in 5.0 mi Calm Calm - 0.00 in   Overcast
6:21 AM 54.0 °F - 53.1 °F 97% 29.86 in 4.0 mi Calm Calm - N/A   Overcast
6:53 AM 54.0 °F - 53.1 °F 97% 29.83 in 5.0 mi South 3.5 mph - N/A   Overcast
7:34 AM 54.0 °F - 53.1 °F 97% 29.81 in 4.0 mi SSW 3.5 mph - N/A   Overcast
7:53 AM 54.0 °F - 53.1 °F 97% 29.80 in 2.5 mi Calm Calm - N/A   Overcast
8:09 AM 54.0 °F - 53.1 °F 97% 29.79 in 4.0 mi Calm Calm - N/A   Mostly Cloudy
8:30 AM 55.0 °F - 53.1 °F 93% 29.80 in 3.0 mi West 3.5 mph - N/A   Scattered Clouds
8:53 AM 55.0 °F - 54.0 °F 96% 29.81 in 6.0 mi Calm Calm - N/A   Mostly Cloudy
9:53 AM 57.0 °F - 55.9 °F 96% 29.79 in 8.0 mi Calm Calm - N/A   Overcast
10:53 AM 60.1 °F - 57.0 °F 90% 29.76 in 10.0 mi ESE 3.5 mph - 0.00 in Rain Light Rain
11:53 AM 61.0 °F - 57.9 °F 90% 29.73 in 10.0 mi SSE 6.9 mph - 0.01 in   Overcast
12:53 PM 62.1 °F - 59.0 °F 90% 29.68 in 10.0 mi SSE 8.1 mph - 0.00 in   Mostly Cloudy
1:53 PM 63.0 °F - 59.0 °F 87% 29.65 in 10.0 mi SE 9.2 mph - N/A   Overcast
2:53 PM 63.0 °F - 59.0 °F 87% 29.60 in 10.0 mi South 11.5 mph - 0.00 in Rain Light Rain
3:53 PM 62.1 °F - 60.1 °F 93% 29.57 in 10.0 mi SSE 6.9 mph - 0.01 in Rain Light Rain
4:26 PM 62.1 °F - 60.1 °F 93% 29.54 in 2.5 mi Calm Calm - 0.06 in Rain Rain
4:37 PM 62.1 °F - 60.1 °F 93% 29.52 in 4.0 mi SE 4.6 mph - 0.09 in Rain Rain
4:53 PM 61.0 °F - 60.1 °F 97% 29.52 in 2.5 mi NE 3.5 mph - 0.16 in Rain Heavy Rain
5:07 PM 61.0 °F - 60.1 °F 97% 29.49 in 4.0 mi East 5.8 mph - 0.05 in Rain Heavy Rain
5:53 PM 61.0 °F - 60.1 °F 97% 29.47 in 10.0 mi Calm Calm - 0.11 in Rain Light Rain
6:07 PM 61.0 °F - 60.1 °F 97% 29.45 in 4.0 mi Calm Calm - 0.04 in Rain Rain
6:36 PM 61.0 °F - 60.1 °F 97% 29.43 in 8.0 mi Calm Calm - 0.05 in Rain Light Rain
6:53 PM 61.0 °F - 60.1 °F 97% 29.42 in 10.0 mi Calm Calm - 0.05 in Rain Light Rain
6:57 PM 61.0 °F - 60.1 °F 97% 29.42 in 10.0 mi Calm Calm - 0.00 in Rain Light Rain
7:10 PM 61.0 °F - 60.1 °F 97% 29.41 in 2.5 mi Calm Calm - 0.01 in Rain Light Rain
7:17 PM 61.0 °F - 60.1 °F 97% 29.40 in 5.0 mi Calm Calm - 0.01 in Rain Light Rain
7:53 PM 61.0 °F - 60.1 °F 97% 29.37 in 10.0 mi Calm Calm - 0.07 in Rain Light Rain
8:53 PM 62.1 °F - 61.0 °F 96% 29.35 in 9.0 mi WNW 4.6 mph - 0.07 in Rain Rain
9:53 PM 64.9 °F - 64.0 °F 97% 29.34 in 4.0 mi South 5.8 mph - 0.24 in Rain Rain
10:53 PM 64.9 °F - 63.0 °F 93% 29.30 in 7.0 mi SSE 6.9 mph - 0.15 in Rain Rain
11:38 PM 66.0 °F - 64.0 °F 93% 29.28 in 2.0 mi SSE 5.8 mph - 0.21 in Rain Heavy Rain
11:51 PM 64.4 °F - 64.4 °F 100% 29.24 in 5.0 mi SE 10.4 mph - 0.25 in Rain Rain
11:53 PM 1.0 °F -15.8 °F 1.0 °F 100% 29.24 in 6.0 mi SE 11.5 mph - 0.25 in Rain Light Freezing Rain